| time (UTC) | temp C | wind direction | speed KPH | gust KPH | rain 1hr cm | rain 24hr cm | rain mn cm | humidity % | barometer mb |
| 20260503200510 | 14 | 248 | 9.7 | 30.6 | 0.00 | 0.00 | 0.00 | 1 | 1013.2 |
| 20260503200010 | 14 | 183 | 12.9 | 25.7 | 0.00 | 0.00 | 0.00 | 1 | 1013.2 |
| 20260503195758 | 14 | 233 | 11.3 | 24.1 | 0.00 | 0.00 | 0.00 | 1 | 1013.2 |
| 20260503195011 | 14 | 245 | 6.4 | 20.9 | 0.00 | 0.00 | 0.00 | 1 | 1013.1 |
| 20260503194756 | 14 | 298 | 6.4 | 22.5 | 0.00 | 0.00 | 0.00 | 1 | 1013.2 |
| 20260503194011 | 15 | 237 | 8.0 | 25.7 | 0.00 | 0.00 | 0.00 | 1 | 1013.3 |
| 20260503193835 | 15 | 278 | 6.4 | 22.5 | 0.00 | 0.00 | 0.00 | 1 | 1013.2 |
| 20260503193829 | 15 | 220 | 14.5 | 25.7 | 0.00 | 0.00 | 0.00 | 1 | 1013.2 |
| 20260503192510 | 15 | 195 | 8.0 | 29.0 | 0.00 | 0.00 | 0.00 | 1 | 1013.2 |
| 20260503192011 | 15 | 165 | 14.5 | 29.0 | 0.00 | 0.00 | 0.00 | 1 | 1013.2 |
| 20260503191510 | 15 | 340 | 11.3 | 27.4 | 0.00 | 0.00 | 0.00 | 1 | 1013.2 |
| 20260503191009 | 15 | 276 | 9.7 | 27.4 | 0.00 | 0.00 | 0.00 | 1 | 1013.1 |
| 20260503190510 | 15 | 186 | 11.3 | 25.7 | 0.00 | 0.00 | 0.00 | 1 | 1013.2 |
| 20260503190010 | 15 | 175 | 14.5 | 22.5 | 0.00 | 0.00 | 0.00 | 1 | 1013.2 |
| 20260503185510 | 15 | 193 | 11.3 | 22.5 | 0.00 | 0.00 | 0.00 | 1 | 1013.3 |
| 20260503185009 | 15 | 180 | 14.5 | 22.5 | 0.00 | 0.00 | 0.00 | 1 | 1013.2 |
| 20260503184509 | 15 | 179 | 11.3 | 22.5 | 0.00 | 0.00 | 0.00 | 1 | 1013.2 |
| 20260503184008 | 15 | 207 | 11.3 | 22.5 | 0.00 | 0.00 | 0.00 | 1 | 1013.1 |
| 20260503183509 | 15 | 135 | 4.8 | 22.5 | 0.00 | 0.00 | 0.00 | 1 | 1013.2 |
| 20260503183007 | 14 | 175 | 11.3 | 22.5 | 0.00 | 0.00 | 0.00 | 1 | 1013.1 |
| 20260503182751 | 14 | 207 | 9.7 | 22.5 | 0.00 | 0.00 | 0.00 | 1 | 1013.1 |
| 20260503182255 | 14 | 227 | 9.7 | 17.7 | 0.00 | 0.00 | 0.00 | 1 | 1013.1 |
| 20260503181507 | 14 | 274 | 6.4 | 29.0 | 0.00 | 0.00 | 0.00 | 1 | 1013.1 |
| 20260503181007 | 14 | 13 | 6.4 | 29.0 | 0.00 | 0.00 | 0.00 | 1 | 1013.0 |
| 20260503180750 | 13 | 244 | 11.3 | 25.7 | 0.00 | 0.00 | 0.00 | 1 | 1013.1 |
| 20260503180252 | 13 | 276 | 4.8 | 19.3 | 0.00 | 0.00 | 0.00 | 1 | 1012.9 |
| 20260503175508 | 13 | 113 | 6.4 | 20.9 | 0.00 | 0.00 | 0.00 | 1 | 1012.9 |
| 20260503175007 | 12 | 296 | 4.8 | 24.1 | 0.00 | 0.00 | 0.00 | 1 | 1013.0 |
| 20260503174506 | 12 | 0 | 12.9 | 29.0 | 0.00 | 0.00 | 0.00 | 1 | 1013.0 |
| 20260503174255 | 13 | 0 | 8.0 | 29.0 | 0.00 | 0.00 | 0.00 | 1 | 1013.0 |
| 20260503173507 | 13 | 357 | 6.4 | 27.4 | 0.00 | 0.00 | 0.00 | 1 | 1013.0 |
| 20260503173007 | 12 | 0 | 8.0 | 24.1 | 0.00 | 0.00 | 0.00 | 1 | 1013.0 |
| 20260503172507 | 12 | 203 | 11.3 | 24.1 | 0.00 | 0.00 | 0.00 | 1 | 1013.0 |
| 20260503172006 | 12 | 0 | 17.7 | 24.1 | 0.00 | 0.00 | 0.00 | 1 | 1013.0 |
| 20260503171506 | 12 | 231 | 11.3 | 19.3 | 0.00 | 0.00 | 0.00 | 1 | 1013.0 |
| 20260503171248 | 12 | 214 | 12.9 | 20.9 | 0.00 | 0.00 | 0.00 | 1 | 1012.9 |
| 20260503170506 | 12 | 195 | 11.3 | 20.9 | 0.00 | 0.00 | 0.00 | 1 | 1013.0 |
| 20260503150503 | 11 | 244 | 6.4 | 11.3 | 0.00 | 0.00 | 0.00 | 1 | 1012.3 |
| 20260503130959 | 11 | 230 | 6.4 | 17.7 | 0.00 | 0.00 | 0.00 | 1 | 1010.9 |
| 20260503130459 | 10 | 269 | 9.7 | 17.7 | 0.00 | 0.00 | 0.00 | 1 | 1010.8 |
| 20260503110458 | 11 | 345 | 4.8 | 20.9 | 0.00 | 0.00 | 0.00 | 1 | 1010.9 |
| 20260503090455 | 11 | 14 | 8.0 | 30.6 | 0.00 | 0.00 | 0.00 | 1 | 1011.2 |
| 20260503081454 | 11 | 32 | 6.4 | 22.5 | 0.00 | 0.00 | 0.00 | 1 | 1011.7 |
| 20260503080954 | 11 | 298 | 6.4 | 24.1 | 0.00 | 0.00 | 0.00 | 1 | 1011.7 |
| 20260503080453 | 10 | 282 | 6.4 | 27.4 | 0.00 | 0.00 | 0.00 | 1 | 1011.8 |
| 20260503072453 | 11 | 278 | 8.0 | 25.7 | 0.00 | 0.00 | 0.00 | 1 | 1011.6 |
| 20260503071951 | 11 | 127 | 8.0 | 25.7 | 0.00 | 0.00 | 0.00 | 1 | 1011.6 |
| 20260503071452 | 11 | 252 | 8.0 | 24.1 | 0.00 | 0.00 | 0.00 | 1 | 1011.6 |
| 20260503070951 | 11 | 281 | 6.4 | 29.0 | 0.00 | 0.00 | 0.00 | 1 | 1011.7 |
| 20260503070452 | 11 | 261 | 8.0 | 29.0 | 0.00 | 0.00 | 0.00 | 1 | 1011.7 |
| 20260503054949 | 11 | 320 | 6.4 | 30.6 | 0.00 | 0.00 | 0.00 | 1 | 1012.0 |
| 20260503054449 | 11 | 345 | 9.7 | 30.6 | 0.00 | 0.00 | 0.00 | 1 | 1011.9 |
| 20260503053948 | 11 | 109 | 6.4 | 24.1 | 0.00 | 0.00 | 0.00 | 1 | 1012.0 |
| 20260503053450 | 11 | 63 | 8.0 | 32.2 | 0.00 | 0.00 | 0.00 | 1 | 1012.2 |
| 20260503053234 | 11 | 274 | 14.5 | 38.6 | 0.00 | 0.00 | 0.00 | 1 | 1012.1 |
| 20260503052528 | 11 | 271 | 11.3 | 41.8 | 0.00 | 0.00 | 0.00 | 1 | 1012.1 |
| 20260503052515 | 11 | 269 | 14.5 | 38.6 | 0.00 | 0.00 | 0.00 | 1 | 1012.1 |
| 20260503051449 | 11 | 350 | 12.9 | 41.8 | 0.00 | 0.00 | 0.00 | 1 | 1012.1 |
| 20260503050949 | 11 | 275 | 16.1 | 33.8 | 0.00 | 0.00 | 0.00 | 1 | 1011.9 |
| 20260503050449 | 11 | 52 | 11.3 | 32.2 | 0.00 | 0.00 | 0.00 | 1 | 1012.0 |
| 20260503045949 | 11 | 250 | 8.0 | 37.0 | 0.00 | 0.00 | 0.00 | 1 | 1012.1 |
| 20260503045734 | 11 | 135 | 6.4 | 37.0 | 0.00 | 0.00 | 0.00 | 1 | 1012.0 |
| 20260503044949 | 11 | 338 | 12.9 | 30.6 | 0.00 | 0.00 | 0.00 | 1 | 1012.1 |
| 20260503044447 | 11 | 69 | 12.9 | 30.6 | 0.00 | 0.00 | 0.00 | 1 | 1012.0 |
| 20260503043948 | 11 | 264 | 11.3 | 30.6 | 0.00 | 0.00 | 0.00 | 1 | 1012.0 |
| 20260503043447 | 11 | 0 | 14.5 | 38.6 | 0.00 | 0.00 | 0.00 | 1 | 1012.0 |
| 20260503042948 | 11 | 0 | 17.7 | 38.6 | 0.00 | 0.00 | 0.00 | 1 | 1011.8 |
| 20260503042447 | 11 | 355 | 9.7 | 33.8 | 0.00 | 0.00 | 0.00 | 1 | 1011.9 |
| 20260503041948 | 11 | 326 | 12.9 | 33.8 | 0.00 | 0.00 | 0.00 | 1 | 1011.9 |
| 20260503041534 | 11 | 305 | 11.3 | 32.2 | 0.00 | 0.00 | 0.00 | 1 | 1011.9 |
| 20260503041517 | 11 | 305 | 8.0 | 32.2 | 0.00 | 0.00 | 0.00 | 1 | 1011.9 |
| 20260503040448 | 11 | 358 | 8.0 | 29.0 | 0.00 | 0.00 | 0.00 | 1 | 1011.9 |
| 20260503035948 | 11 | 207 | 12.9 | 29.0 | 0.00 | 0.00 | 0.00 | 1 | 1011.8 |
| 20260503035448 | 11 | 38 | 9.7 | 30.6 | 0.00 | 0.00 | 0.00 | 1 | 1011.8 |
| 20260503034948 | 11 | 285 | 8.0 | 30.6 | 0.00 | 0.00 | 0.00 | 1 | 1011.9 |
| 20260503034448 | 11 | 334 | 4.8 | 30.6 | 0.00 | 0.00 | 0.00 | 1 | 1011.8 |
| 20260503033947 | 11 | 269 | 11.3 | 33.8 | 0.00 | 0.00 | 0.00 | 1 | 1011.8 |
| 20260503033448 | 11 | 257 | 14.5 | 37.0 | 0.00 | 0.00 | 0.00 | 1 | 1011.7 |
| 20260503032947 | 11 | 10 | 11.3 | 38.6 | 0.00 | 0.00 | 0.00 | 1 | 1011.5 |
| 20260503032732 | 11 | 258 | 19.3 | 38.6 | 0.00 | 0.00 | 0.00 | 1 | 1011.5 |
| 20260503032234 | 11 | 0 | 14.5 | 41.8 | 0.00 | 0.00 | 0.00 | 1 | 1011.4 |
| 20260503031735 | 11 | 73 | 16.1 | 41.8 | 0.00 | 0.00 | 0.00 | 1 | 1011.3 |
| 20260503030947 | 11 | 282 | 19.3 | 37.0 | 0.00 | 0.00 | 0.00 | 1 | 1011.2 |
| 20260503030524 | 11 | 52 | 16.1 | 41.8 | 0.00 | 0.00 | 0.00 | 1 | 1011.1 |
| 20260503030511 | 11 | 288 | 9.7 | 41.8 | 0.00 | 0.00 | 0.00 | 1 | 1011.1 |
| 20260503025446 | 11 | 286 | 14.5 | 45.1 | 0.00 | 0.00 | 0.00 | 1 | 1011.1 |
| 20260503024947 | 11 | 330 | 12.9 | 45.1 | 0.00 | 0.00 | 0.00 | 1 | 1011.1 |
| 20260503024447 | 11 | 282 | 16.1 | 38.6 | 0.00 | 0.00 | 0.00 | 1 | 1011.1 |
| 20260503023947 | 11 | 307 | 14.5 | 38.6 | 0.00 | 0.00 | 0.00 | 1 | 1011.0 |
| 20260503023445 | 11 | 6 | 14.5 | 35.4 | 0.00 | 0.00 | 0.00 | 1 | 1011.0 |
| 20260503022945 | 11 | 269 | 12.9 | 33.8 | 0.00 | 0.00 | 0.00 | 1 | 1011.2 |
| 20260503022445 | 11 | 286 | 11.3 | 29.0 | 0.00 | 0.00 | 0.00 | 1 | 1011.2 |
| 20260503021946 | 11 | 283 | 6.4 | 43.5 | 0.00 | 0.00 | 0.00 | 1 | 1011.1 |
| 20260503021445 | 11 | 296 | 9.7 | 43.5 | 0.00 | 0.00 | 0.00 | 1 | 1011.1 |
| 20260503020947 | 11 | 73 | 14.5 | 37.0 | 0.00 | 0.00 | 0.00 | 1 | 1011.2 |
| 20260503020445 | 11 | 258 | 11.3 | 35.4 | 0.00 | 0.00 | 0.00 | 1 | 1011.2 |
| 20260503020233 | 11 | 266 | 19.3 | 41.8 | 0.00 | 0.00 | 0.00 | 1 | 1011.3 |
| 20260503015445 | 11 | 248 | 8.0 | 41.8 | 0.00 | 0.00 | 0.00 | 1 | 1011.3 |
| 20260503014945 | 11 | 343 | 14.5 | 37.0 | 0.00 | 0.00 | 0.00 | 1 | 1011.3 |
| 20260503014733 | 12 | 0 | 12.9 | 37.0 | 0.00 | 0.00 | 0.00 | 1 | 1011.3 |
| 20260503013945 | 12 | 10 | 8.0 | 35.4 | 0.00 | 0.00 | 0.00 | 1 | 1011.2 |
| 20260503013444 | 12 | 0 | 9.7 | 35.4 | 0.00 | 0.00 | 0.00 | 1 | 1011.3 |
| 20260503012945 | 12 | 340 | 8.0 | 37.0 | 0.00 | 0.00 | 0.00 | 1 | 1011.4 |
| 20260503012446 | 12 | 271 | 14.5 | 37.0 | 0.00 | 0.00 | 0.00 | 1 | 1011.4 |
| 20260503011944 | 12 | 75 | 12.9 | 35.4 | 0.00 | 0.00 | 0.00 | 1 | 1011.6 |
| 20260503011446 | 12 | 0 | 9.7 | 35.4 | 0.00 | 0.00 | 0.00 | 1 | 1011.5 |
| 20260503011232 | 12 | 83 | 9.7 | 32.2 | 0.00 | 0.00 | 0.00 | 1 | 1011.6 |
| 20260503010444 | 12 | 283 | 8.0 | 33.8 | 0.00 | 0.00 | 0.00 | 1 | 1011.5 |
| 20260503005945 | 12 | 92 | 9.7 | 35.4 | 0.00 | 0.00 | 0.00 | 1 | 1011.4 |
| 20260503005443 | 12 | 259 | 14.5 | 35.4 | 0.00 | 0.00 | 0.00 | 1 | 1011.6 |
| 20260503004943 | 12 | 293 | 16.1 | 33.8 | 0.00 | 0.00 | 0.00 | 1 | 1011.5 |
| 20260503004444 | 12 | 16 | 9.7 | 32.2 | 0.00 | 0.00 | 0.00 | 1 | 1011.5 |
| 20260503003945 | 12 | 199 | 14.5 | 38.6 | 0.00 | 0.00 | 0.00 | 1 | 1011.5 |
| 20260503003445 | 12 | 271 | 16.1 | 38.6 | 0.00 | 0.00 | 0.00 | 1 | 1011.7 |
| 20260503002944 | 12 | 278 | 14.5 | 33.8 | 0.00 | 0.00 | 0.00 | 1 | 1011.7 |
| 20260503002444 | 12 | 0 | 11.3 | 33.8 | 0.00 | 0.00 | 0.00 | 1 | 1011.6 |
| 20260503001943 | 12 | 300 | 9.7 | 33.8 | 0.00 | 0.00 | 0.00 | 1 | 1011.7 |
| 20260503001444 | 12 | 275 | 11.3 | 38.6 | 0.00 | 0.00 | 0.00 | 1 | 1011.7 |
| 20260503000944 | 12 | 286 | 22.5 | 38.6 | 0.00 | 0.00 | 0.00 | 1 | 1011.8 |
| 20260503000442 | 12 | 353 | 12.9 | 33.8 | 0.00 | 0.00 | 0.00 | 1 | 1011.8 |
| 20260502235943 | 12 | 250 | 14.5 | 33.8 | 0.00 | 0.00 | 0.00 | 1 | 1011.8 |
| 20260502235443 | 12 | 0 | 8.0 | 41.8 | 0.00 | 0.00 | 0.00 | 1 | 1011.8 |
| 20260502234942 | 12 | 243 | 20.9 | 43.5 | 0.00 | 0.00 | 0.00 | 1 | 1011.8 |
| 20260502234443 | 13 | 271 | 17.7 | 43.5 | 0.00 | 0.00 | 0.00 | 1 | 1011.9 |
| 20260502233943 | 13 | 248 | 19.3 | 38.6 | 0.00 | 0.00 | 0.00 | 1 | 1011.9 |
| 20260502233728 | 12 | 34 | 6.4 | 41.8 | 0.00 | 0.00 | 0.00 | 1 | 1011.9 |
| 20260502232942 | 12 | 314 | 14.5 | 41.8 | 0.00 | 0.00 | 0.00 | 1 | 1012.0 |
| 20260502232442 | 12 | 202 | 20.9 | 35.4 | 0.00 | 0.00 | 0.00 | 1 | 1012.0 |
| 20260502231940 | 13 | 0 | 9.7 | 35.4 | 0.00 | 0.00 | 0.00 | 1 | 1012.1 |
| 20260502231722 | 12 | 281 | 11.3 | 38.6 | 0.00 | 0.00 | 0.00 | 1 | 1012.2 |
| 20260502230940 | 12 | 313 | 19.3 | 38.6 | 0.00 | 0.00 | 0.00 | 1 | 1012.3 |
| 20260502230441 | 12 | 97 | 14.5 | 38.6 | 0.00 | 0.00 | 0.00 | 1 | 1012.3 |
| 20260502225940 | 12 | 250 | 17.7 | 41.8 | 0.00 | 0.00 | 0.00 | 1 | 1012.4 |
| 20260502225441 | 13 | 0 | 12.9 | 41.8 | 0.00 | 0.00 | 0.00 | 1 | 1012.6 |
| 20260502224941 | 13 | 241 | 16.1 | 38.6 | 0.00 | 0.00 | 0.00 | 1 | 1012.5 |
| 20260502224440 | 13 | 34 | 11.3 | 38.6 | 0.00 | 0.00 | 0.00 | 1 | 1012.6 |
| 20260502223939 | 13 | 233 | 12.9 | 29.0 | 0.00 | 0.00 | 0.00 | 1 | 1012.8 |
| 20260502223439 | 13 | 300 | 8.0 | 30.6 | 0.00 | 0.00 | 0.00 | 1 | 1012.8 |
| 20260502222939 | 13 | 245 | 14.5 | 35.4 | 0.00 | 0.00 | 0.00 | 1 | 1012.8 |
| 20260502222439 | 13 | 241 | 9.7 | 38.6 | 0.00 | 0.00 | 0.00 | 1 | 1012.9 |
| 20260502221940 | 13 | 254 | 17.7 | 38.6 | 0.00 | 0.00 | 0.00 | 1 | 1013.1 |
| 20260502221439 | 13 | 259 | 9.7 | 38.6 | 0.00 | 0.00 | 0.00 | 1 | 1013.1 |
| 20260502220938 | 13 | 247 | 12.9 | 38.6 | 0.00 | 0.00 | 0.00 | 1 | 1013.2 |
| 20260502220439 | 13 | 0 | 8.0 | 27.4 | 0.00 | 0.00 | 0.00 | 1 | 1013.2 |
| 20260502215938 | 13 | 305 | 8.0 | 25.7 | 0.00 | 0.00 | 0.00 | 1 | 1013.2 |
| 20260502215438 | 13 | 0 | 4.8 | 29.0 | 0.00 | 0.00 | 0.00 | 1 | 1013.2 |
| 20260502214939 | 13 | 237 | 17.7 | 29.0 | 0.00 | 0.00 | 0.00 | 1 | 1013.2 |
| 20260502214438 | 13 | 282 | 9.7 | 29.0 | 0.00 | 0.00 | 0.00 | 1 | 1013.2 |
| 20260502213939 | 13 | 238 | 16.1 | 33.8 | 0.00 | 0.00 | 0.00 | 1 | 1013.3 |
| 20260502213727 | 13 | 262 | 16.1 | 37.0 | 0.00 | 0.00 | 0.00 | 1 | 1013.2 |
| 20260502213225 | 13 | 269 | 14.5 | 37.0 | 0.00 | 0.00 | 0.00 | 1 | 1013.2 |
| 20260502212724 | 13 | 286 | 9.7 | 27.4 | 0.00 | 0.00 | 0.00 | 1 | 1013.3 |
| 20260502211937 | 13 | 278 | 8.0 | 38.6 | 0.00 | 0.00 | 0.00 | 1 | 1013.3 |
| 20260502211438 | 13 | 276 | 14.5 | 38.6 | 0.00 | 0.00 | 0.00 | 1 | 1013.2 |
| 20260502211226 | 13 | 27 | 16.1 | 45.1 | 0.00 | 0.00 | 0.00 | 1 | 1013.4 |
| 20260502210438 | 13 | 313 | 14.5 | 45.1 | 0.00 | 0.00 | 0.00 | 1 | 1013.4 |
| 20260502205937 | 13 | 0 | 6.4 | 45.1 | 0.00 | 0.00 | 0.00 | 1 | 1013.5 |
| 20260502205438 | 13 | 265 | 17.7 | 45.1 | 0.00 | 0.00 | 0.00 | 1 | 1013.6 |
| 20260502204938 | 13 | 202 | 9.7 | 32.2 | 0.00 | 0.00 | 0.00 | 1 | 1013.6 |
| 20260502204437 | 13 | 333 | 9.7 | 33.8 | 0.00 | 0.00 | 0.00 | 1 | 1013.6 |
| 20260502203937 | 13 | 186 | 14.5 | 35.4 | 0.00 | 0.00 | 0.00 | 1 | 1013.7 |
| 20260502203438 | 13 | 251 | 19.3 | 35.4 | 0.00 | 0.00 | 0.00 | 1 | 1013.6 |
| 20260502202936 | 13 | 298 | 16.1 | 30.6 | 0.00 | 0.00 | 0.00 | 1 | 1013.7 |
| 20260502202436 | 13 | 23 | 8.0 | 35.4 | 0.00 | 0.00 | 0.00 | 1 | 1013.6 |
| 20260502201937 | 13 | 314 | 17.7 | 35.4 | 0.00 | 0.00 | 0.00 | 1 | 1013.8 |
| 20260502201437 | 13 | 271 | 11.3 | 35.4 | 0.00 | 0.00 | 0.00 | 1 | 1013.8 |
| 20260502200937 | 13 | 37 | 12.9 | 35.4 | 0.00 | 0.00 | 0.00 | 1 | 1013.7 |